Location: St. Louis
(38.6270°N, 90.1994°W)
Time: 11:21:05
(UTC-06:00)

Altair - Pass Details

Date: 05 December 2021
Orbit: 1501 x 1683 km, 47.2° (Epoch: 25 January)

Event Time Altitude Azimuth Distance (km) Brightness Sun altitude
Rises 23:05:30 0° 294° (WNW) 4,641 - -71.1°
Reaches altitude 10° 23:09:13 10° 282° (WNW) 3,651 - -71.5°
Maximum altitude 23:16:06 25° 232° (SW) 2,688 - -72.2°
Drops below altitude 10° 23:23:03 10° 182° (S) 3,672 - -72.8°
Sets 23:26:50 0° 170° (S) 4,673 - -73.0°
